This is the latest recevied weather packets stored in our database for station/object JA0BES-13. If no packets are shown the sender has not sent any weather packets the latest 10 day(s).
| Time | Temp. | Humidity | Pressure | Rain* | Wind** | Luminosity | Snow |
|---|---|---|---|---|---|---|---|
| 1777599090 | 14.44° C | 100% | 999.6 hPa | 7.37 mm | - | - | - |
| 1777598489 | 13.89° C | 100% | 1000.5 hPa | 7.37 mm | - | - | - |
| 1777597889 | 13.89° C | 100% | 1000.3 hPa | 7.37 mm | - | - | - |
| 1777597288 | 13.33° C | 100% | 1000.9 hPa | 7.37 mm | - | - | - |
| 1777596688 | 13.33° C | 100% | 1001.3 hPa | 7.11 mm | - | - | - |
| 1777596088 | 13.33° C | 100% | 1001.8 hPa | 7.11 mm | - | - | - |
| 1777595488 | 13.89° C | 100% | 1002.8 hPa | 7.11 mm | - | - | - |
| 1777594887 | 13.89° C | 100% | 1002.5 hPa | 7.11 mm | - | - | - |
| 1777594287 | 13.33° C | 100% | 1003.4 hPa | 6.86 mm | - | - | - |
| 1777593686 | 13.33° C | 100% | 1003.9 hPa | 6.6 mm | - | - | - |
| 1777593086 | 13.33° C | 100% | 1003.9 hPa | 6.1 mm | - | - | - |
| 1777592485 | 13.33° C | 100% | 1004.1 hPa | 5.59 mm | - | - | - |
| 1777591885 | 12.78° C | 100% | 1004.3 hPa | 5.08 mm | - | - | - |
| 1777591285 | 12.78° C | 100% | 1004.2 hPa | 4.83 mm | - | - | - |
| 1777590685 | 13.33° C | 100% | 1004.5 hPa | 4.32 mm | - | - | - |
| 1777590084 | 13.33° C | 100% | 1004.7 hPa | 4.06 mm | - | - | - |
| 1777589484 | 13.33° C | 100% | 1004.9 hPa | 3.81 mm | - | - | - |
| 1777588883 | 13.33° C | 100% | 1004.9 hPa | 3.56 mm | - | - | - |
| 1777588283 | 13.33° C | 100% | 1004.8 hPa | 3.56 mm | - | - | - |
| 1777587683 | 12.78° C | 100% | 1004.8 hPa | 3.56 mm | - | - | - |
| 1777587083 | 12.78° C | 100% | 1005.3 hPa | 3.56 mm | - | - | - |
| 1777586482 | 12.78° C | 100% | 1005.2 hPa | 3.56 mm | - | - | - |
| 1777585882 | 12.78° C | 100% | 1005.7 hPa | 3.3 mm | - | - | - |
| 1777585281 | 12.78° C | 100% | 1005.7 hPa | 3.05 mm | - | - | - |
| 1777584681 | 13.33° C | 100% | 1006.2 hPa | 2.29 mm | - | - | - |
* Rain since midnight (hover to see other rain measurements)
** Current wind speed in m/s (hover to see current wind gust speed)